TimePDT,TemperatureF,Dew PointF,Humidity,Sea Level PressureIn,VisibilityMPH,Wind Direction,Wind SpeedMPH,Gust SpeedMPH,PrecipitationIn,Events,Conditions,WindDirDegrees,DateUTC
12:53 AM,62.1,44.1,52,29.81,10.0,Calm,Calm,-,N/A,,Clear,0,2013-08-29 07:53:00
1:53 AM,63.0,45.0,52,29.80,10.0,North,5.8,-,N/A,,Clear,350,2013-08-29 08:53:00
2:53 AM,60.1,46.0,60,29.81,10.0,ESE,6.9,-,N/A,,Clear,110,2013-08-29 09:53:00
3:53 AM,59.0,45.0,60,29.81,10.0,ESE,6.9,-,N/A,,Clear,120,2013-08-29 10:53:00
4:53 AM,59.0,45.0,60,29.81,10.0,SE,5.8,-,N/A,,Clear,140,2013-08-29 11:53:00
5:53 AM,60.1,46.0,60,29.82,10.0,SSE,9.2,-,N/A,,Clear,150,2013-08-29 12:53:00
6:53 AM,62.1,46.9,58,29.83,10.0,SE,5.8,-,N/A,,Clear,130,2013-08-29 13:53:00
7:53 AM,63.0,46.9,56,29.86,10.0,SE,6.9,-,N/A,,Clear,140,2013-08-29 14:53:00
8:53 AM,66.0,46.0,48,29.86,10.0,SSE,6.9,-,N/A,,Clear,150,2013-08-29 15:53:00
9:53 AM,69.1,46.9,45,29.87,10.0,SE,4.6,-,N/A,,Clear,130,2013-08-29 16:53:00
10:53 AM,75.9,48.9,38,29.86,10.0,SSE,4.6,-,N/A,,Clear,150,2013-08-29 17:53:00
11:53 AM,79.0,50.0,36,29.88,10.0,Calm,Calm,-,N/A,,Clear,0,2013-08-29 18:53:00
12:53 PM,84.0,48.9,29,29.87,10.0,North,-9999.0,-,N/A,,Clear,0,2013-08-29 19:53:00
1:53 PM,89.1,51.1,27,29.88,10.0,WNW,9.2,20.7,N/A,,Clear,300,2013-08-29 20:53:00
2:53 PM,87.1,53.1,31,29.89,10.0,WNW,19.6,25.3,N/A,,Clear,300,2013-08-29 21:53:00
3:53 PM,88.0,52.0,29,29.88,10.0,NNW,12.7,-,N/A,,Clear,330,2013-08-29 22:53:00
4:53 PM,88.0,51.1,28,29.89,10.0,NW,10.4,-,N/A,,Clear,310,2013-08-29 23:53:00
5:53 PM,86.0,51.1,30,29.89,10.0,NNW,12.7,-,N/A,,Clear,330,2013-08-30 00:53:00
6:53 PM,84.0,50.0,31,29.90,10.0,WNW,11.5,-,N/A,,Clear,300,2013-08-30 01:53:00
7:53 PM,77.0,51.1,40,29.94,10.0,NW,12.7,-,N/A,,Clear,310,2013-08-30 02:53:00
8:53 PM,72.0,52.0,49,29.98,10.0,WNW,12.7,-,N/A,,Clear,300,2013-08-30 03:53:00
9:53 PM,72.0,52.0,49,29.99,10.0,WNW,18.4,-,N/A,,Partly Cloudy,290,2013-08-30 04:53:00
10:53 PM,69.1,52.0,54,30.01,10.0,WSW,8.1,-,N/A,,Partly Cloudy,250,2013-08-30 05:53:00
11:53 PM,68.0,53.1,59,30.02,10.0,South,5.8,-,N/A,,Clear,190,2013-08-30 06:53:00